Home   Weather   USA   Miami   Past weeks
Flag for USA

Past Weather in Miami, Florida, USA — January 2014

Currently: 84 °F. Passing clouds. (Weather station: Miami International Airport, USA). See more current weather

January 2014 Weather in Miami — Graph

°F

High & Low Weather Summary for January 2014

 TemperatureHumidityPressure
High84 °F (Jan 6, 1:53 pm)100% (Jan 6, 4:53 am)30.36 "Hg (Jan 6, 4:53 am)
Low46 °F (Jan 17, 4:53 am)29% (Jan 16, 2:53 pm)29.90 "Hg (Jan 2, 3:53 pm)
Average68 °F73%30.10 "Hg
* Reported Jan 1 12:53 am — Jan 31 11:53 pm, Miami. Weather by CustomWeather, © 2024

Note: Actual official high and low records may vary slightly from our data, if they occured in-between our weather recording intervals... More about our weather records

Miami Weather History for January 1, 2014

Scroll right to see more
 ConditionsComfort  
Time TempWeatherWind HumidityBarometerVisibility
12:53 am
Wed, Jan 1
74 °FLight rain. Overcast.10 mph76%30.18 "Hg8 mi
1:53 am75 °FMostly cloudy.12 mph76%30.16 "Hg10 mi
2:53 am75 °FMostly cloudy.9 mph79%30.15 "Hg10 mi
3:53 am75 °FLight rain. Mostly cloudy.12 mph82%30.14 "Hg9 mi
4:53 am75 °FMostly cloudy.14 mph79%30.13 "Hg9 mi
5:53 am75 °FOvercast.9 mph82%30.14 "Hg9 mi
6:53 am76 °FPassing clouds.9 mph80%30.15 "Hg9 mi
7:53 am75 °FBroken clouds.10 mph85%30.17 "Hg10 mi
8:53 am77 °FScattered clouds.13 mph79%30.18 "Hg10 mi
9:53 am79 °FBroken clouds.10 mph77%30.19 "Hg10 mi
10:53 am80 °FPartly sunny.15 mph76%30.18 "Hg10 mi
11:53 am81 °FPartly sunny.12 mph74%30.16 "Hg10 mi
12:53 pm81 °FBroken clouds.14 mph69%30.12 "Hg10 mi
1:53 pm82 °FBroken clouds.12 mph70%30.09 "Hg10 mi
2:53 pm81 °FBroken clouds.15 mph72%30.08 "Hg10 mi
3:53 pm80 °FBroken clouds.9 mph71%30.08 "Hg10 mi
4:53 pm79 °FBroken clouds.10 mph74%30.08 "Hg10 mi
5:53 pm77 °FPassing clouds.9 mph79%30.07 "Hg10 mi
6:53 pm77 °FPassing clouds.7 mph82%30.08 "Hg10 mi
7:53 pm76 °FPassing clouds.7 mph88%30.09 "Hg10 mi
8:53 pm75 °FPassing clouds.7 mph88%30.09 "Hg10 mi
9:53 pm76 °FPassing clouds.7 mph88%30.09 "Hg10 mi
10:53 pm74 °FPassing clouds.5 mph91%30.08 "Hg10 mi
11:53 pm75 °FPassing clouds.5 mph85%30.06 "Hg10 mi
Weather by CustomWeather, © 2024

See weather overview